Meteo Giornale » Osservazioni meteo Italia » Perugia

ore: 10:20 - Osservazioni Meteo Perugia
Lat. 43° 5' N Lon. 12° 30' E Alt. 208 metri s.l.m.

molto_nuvoloso Europe/Rome

16 °C

Molto Nuvoloso

Temp. 24 Ore

14 °C

22 °C

Nord

1.8 Km/h

Dew point 14 °C

Umidità 87 %

Visibilità  10 Km

Il sole sorge alle ore 07:06

Il sole tramonta alle ore 18:52

Data e Ora Cielo e Fenomeni T °C DP °C Um. % Pres. hPa Vis. km Vento km/h
Oggi h: 10:20 molto_nuvoloso Molto Nuvoloso 16 14 87 1011 10 N 1.8
Oggi h: 09:50 coperto Coperto 16 15 93 1011 10 N 3.7
Oggi h: 09:20 coperto Coperto 15 15 100 1011 10 N 1.8
Oggi h: 08:50 molto_nuvoloso Molto Nuvoloso 15 15 100 1011 10 N 1.8
Oggi h: 08:20 molto_nuvoloso Molto Nuvoloso 14 14 100 1011 10 N 3.7
Oggi h: 07:50 molto_nuvoloso Molto Nuvoloso 15 15 100 1011 10 N 1.8
Oggi h: 07:20 molto_nuvoloso Molto Nuvoloso 14 14 100 1011 10 N 1.8
Oggi h: 06:50 molto_nuvoloso Molto Nuvoloso 14 14 100 1011 10 N 3.7
Oggi h: 05:50 coperto Coperto 14 14 100 1011 10 N 5.5
Oggi h: 04:50 coperto Coperto 14 14 100 1011 10 N 3.7
Oggi h: 04:20 molto_nuvoloso Molto Nuvoloso 15 15 100 1012 10 N 5.5
Oggi h: 03:50 molto_nuvoloso Molto Nuvoloso 15 15 100 1012 10 N 1.8
Oggi h: 03:20 coperto_pioggia Pioggia Debole 15 15 100 1012 10 N 1.8
Oggi h: 02:50 coperto_pioggia Pioggia Debole 15 15 100 1012 10 N 5.5
Oggi h: 02:20 coperto_pioggia Pioggia Debole 16 15 93 1013 10 N 1.8
Oggi h: 01:50 molto_nuvoloso Molto Nuvoloso 15 14 93 1013 10 N 3.7
Oggi h: 01:20 molto_nuvoloso Molto Nuvoloso 15 15 100 1013 10 N 3.7
Oggi h: 00:50 molto_nuvoloso Molto Nuvoloso 16 15 93 1013 10 N 3.7
Oggi h: 00:20 molto_nuvoloso Molto Nuvoloso 16 16 100 1013 10 N 1.8
Ieri h: 23:50 molto_nuvoloso Molto Nuvoloso 16 15 93 1013 10 N 5.5
Ieri h: 23:20 molto_nuvoloso Molto Nuvoloso 16 15 93 1014 10 N 1.8
Ieri h: 22:50 molto_nuvoloso Molto Nuvoloso 17 15 88 1014 10 N 3.7
Ieri h: 22:20 molto_nuvoloso Molto Nuvoloso 16 15 93 1014 10 N 1.8
Ieri h: 21:50 molto_nuvoloso Molto Nuvoloso 16 15 93 1013 10 N 3.7
Ieri h: 21:20 molto_nuvoloso Molto Nuvoloso 16 15 93 1013 10 N 5.5
Ieri h: 20:50 molto_nuvoloso Molto Nuvoloso 16 15 93 1013 10 N 5.5
Ieri h: 20:20 molto_nuvoloso Molto Nuvoloso 17 15 88 1013 10 N 5.5
Ieri h: 19:50 molto_nuvoloso Molto Nuvoloso 18 13 72 1013 10 N 3.7
Ieri h: 19:20 sereno Sereno 19 14 72 1013 10 N 3.7
Ieri h: 18:50 sereno Sereno 20 13 64 1013 10 N 5.5
Ieri h: 17:50 sereno Sereno 22 12 53 1013 10 N 5.5
Ieri h: 17:20 sereno Sereno 22 12 53 1013 10 O 7.4
Ieri h: 16:50 sereno Sereno 22 12 53 1013 10 O 7.4
Ieri h: 16:20 sereno Sereno 22 11 49 1014 10 O/SO 9.3
Ieri h: 15:50 sereno Sereno 22 12 53 1014 10 SO 11.1
Ieri h: 15:20 sereno Sereno 22 12 53 1014 10 O/SO 7.4
Ieri h: 14:50 sereno Sereno 22 12 53 1014 10 N 5.5
Ieri h: 14:20 sereno Sereno 21 11 52 1015 10 N 5.5
Ieri h: 13:50 sereno Sereno 21 11 52 1015 10 N 5.5
Ieri h: 13:20 nuvoloso Nuvoloso 20 12 59 1016 10 N 3.7
Ieri h: 12:50 sereno Sereno 20 12 59 1016 10 N 3.7
Ieri h: 12:20 sereno Sereno 18 12 67 1016 10 N 5.5
Ieri h: 11:50 sereno Sereno 17 12 72 1016 10 N 5.5